WetterOnline ( https://www.wetteronline.de )

Wetter aktuell Soltau

Aktuelles Wetter: Soltau (76m)

6-stündlich | Neueste Meldungen
Ortszeit Temperatur Wetter
Sa, 04.02. 7:00 -0.3° C wolkig
Sa, 04.02. 1:00 3.9° C bedeckt
Fr, 03.02. 19:00 6.8° C bedeckt
Fr, 03.02. 13:00 8.3° C bewölkt
Fr, 03.02. 7:00 7.5° C bewölkt
Fr, 03.02. 1:00 6.2° C leichter Regen
Do, 02.02. 19:00 5.1° C wolkig
Do, 02.02. 13:00 6.9° C leichter Regen
Ortszeit Temperatur Wetter
Sa, 04.02. 7:00 -0.3° C wolkig
Sa, 04.02. 6:50 -0.3° C wolkig
Sa, 04.02. 6:40 -0.7° C bedeckt
Sa, 04.02. 6:30 0.0° C wolkig
Sa, 04.02. 6:20 0.0° C wolkig
Sa, 04.02. 6:10 -0.1° C bewölkt
Sa, 04.02. 6:00 -0.1° C leicht bewölkt
Sa, 04.02. 5:30 1.0° C leicht bewölkt
Sa, 04.02. 5:00 1.3° C bewölkt
Sa, 04.02. 4:30 1.4° C wolkig
Sa, 04.02. 4:00 2.2° C bewölkt
Ortszeit Relative Feuchte Sichtweite
Sa, 04.02. 7:00 97% 40 km
Sa, 04.02. 1:00 90% 65 km
Fr, 03.02. 19:00 76% 21 km
Fr, 03.02. 13:00 70% 23 km
Fr, 03.02. 7:00 91% 20 km
Fr, 03.02. 1:00 99% 4.2 km
Do, 02.02. 19:00 89% 27 km
Do, 02.02. 13:00 74% 16 km
Ortszeit Relative Feuchte Sichtweite
Sa, 04.02. 7:00 97% 40 km
Sa, 04.02. 6:50 97% -
Sa, 04.02. 6:40 96% -
Sa, 04.02. 6:30 95% 40 km
Sa, 04.02. 6:20 95% -
Sa, 04.02. 6:10 96% -
Sa, 04.02. 6:00 95% 40 km
Sa, 04.02. 5:30 92% 50 km
Sa, 04.02. 5:00 91% 60 km
Sa, 04.02. 4:30 91% 60 km
Sa, 04.02. 4:00 89% 65 km
Ortszeit Niederschlagsmenge Niederschlagsart
Sa, 04.02. 7:00 2 l/m2 in 12 Std. -
Sa, 04.02. 1:00 2 l/m2 in 6 Std. Regen
Fr, 03.02. 19:00 3 l/m2 in 12 Std. Regen
Fr, 03.02. 13:00 3 l/m2 in 6 Std. Regen
Fr, 03.02. 7:00 8 l/m2 in 12 Std. Regen
Fr, 03.02. 1:00 7 l/m2 in 6 Std. Regen
Do, 02.02. 19:00 2 l/m2 in 12 Std. Regen
Do, 02.02. 13:00 0.1 l/m2 in 6 Std. Regen
Ortszeit Niederschlagsmenge Niederschlagsart
Sa, 04.02. 7:00 0.0 l/m2 in 1 Std. -
Sa, 04.02. 6:50 keine Meldung -
Sa, 04.02. 6:40 keine Meldung -
Sa, 04.02. 6:30 0.0 l/m2 in 30 Min -
Sa, 04.02. 6:20 keine Meldung -
Sa, 04.02. 6:10 keine Meldung -
Sa, 04.02. 6:00 0.0 l/m2 in 1 Std. -
Sa, 04.02. 5:30 0.0 l/m2 in 30 Min -
Sa, 04.02. 5:00 0.0 l/m2 in 1 Std. -
Sa, 04.02. 4:30 0.0 l/m2 in 30 Min -
Sa, 04.02. 4:00 0.0 l/m2 in 1 Std. -
Ortszeit Stärke Spitze Richtung
km/h Bft. km/h Grad Sektor
Sa, 04.02. 7:00 2 1 22 340° N
Sa, 04.02. 1:00 11 2 67 340° N
Fr, 03.02. 19:00 37 5 70 300° NW
Fr, 03.02. 13:00 35 5 81 300° NW
Fr, 03.02. 7:00 31 5 54 260° W
Fr, 03.02. 1:00 14 3 25 240° SW
Do, 02.02. 19:00 9 2 37 220° SW
Do, 02.02. 13:00 20 4 33 300° NW
Ortszeit Stärke Spitze Richtung
km/h Bft. km/h Grad Sektor
Sa, 04.02. 7:00 2 1 6 340° N
Sa, 04.02. 6:50 2 1 - 340° N
Sa, 04.02. 6:40 4 1 - 350° N
Sa, 04.02. 6:30 4 1 7 30° NO
Sa, 04.02. 6:20 4 1 - 30° NO
Sa, 04.02. 6:10 4 1 - 50° NO
Sa, 04.02. 6:00 4 1 11 350° N
Sa, 04.02. 5:30 7 2 11 30° NO
Sa, 04.02. 5:00 4 1 11 330° NW
Sa, 04.02. 4:30 6 1 9 330° NW
Sa, 04.02. 4:00 6 1 13 330° NW
Ortszeit Untergrenze Bedeckung Gattung
total tief tief mittel hoch
Sa, 04.02. 7:00 4800 m 7/8 1/8 - - -
Sa, 04.02. 1:00 630 m 8/8 8/8 - - -
Fr, 03.02. 19:00 690 m 8/8 8/8 - - -
Fr, 03.02. 13:00 870 m 7/8 6/8 - - -
Fr, 03.02. 7:00 330 m 7/8 7/8 - - -
Fr, 03.02. 1:00 150 m 8/8 8/8 - - -
Do, 02.02. 19:00 2100 m 7/8 3/8 - - -
Do, 02.02. 13:00 600 m 7/8 6/8 - - -
Ortszeit Bedeckungsgrad in Achtel und Wolkenuntergrenze
Sa, 04.02. 7:00 1(4800m) 5(9000m) 7(10500m)
Sa, 04.02. 6:50 1(4800m) 5(9000m) 7(10500m)
Sa, 04.02. 6:40 8
Sa, 04.02. 6:30 7(9000m) 8(10500m) 8(10500m)
Sa, 04.02. 6:20 7(9000m) 8(10500m) 8(10500m)
Sa, 04.02. 6:10 7
Sa, 04.02. 6:00 3(10500m) 4(10500m)
Sa, 04.02. 5:30 2(720m)
Sa, 04.02. 5:00 7(720m)
Sa, 04.02. 4:30 5(780m)
Sa, 04.02. 4:00 7(720m)
Ortszeit Luftdruck NN (hPa) Tendenz (hPa in 3 Std.)
Sa, 04.02. 7:00 1035 + 3,4
Sa, 04.02. 1:00 1028 + 4,8
Fr, 03.02. 19:00 1020 + 1,4
Fr, 03.02. 13:00 1016 + 2,0
Fr, 03.02. 7:00 1016 - 1,6
Fr, 03.02. 1:00 1019 - 2,4
Do, 02.02. 19:00 1023 + 1,5
Do, 02.02. 13:00 1020 + 1,7
Ortszeit Luftdruck NN (hPa) Tendenz (hPa in 3 Std.)
Sa, 04.02. 7:00 1035 + 3,4
Sa, 04.02. 6:50 1035 keine Meldung
Sa, 04.02. 6:40 1035 keine Meldung
Sa, 04.02. 6:30 1034 + 3,2
Sa, 04.02. 6:20 1034 keine Meldung
Sa, 04.02. 6:10 1034 keine Meldung
Sa, 04.02. 6:00 1034 + 3,3
Sa, 04.02. 5:30 1033 + 3,2
Sa, 04.02. 5:00 1033 + 3,6
Sa, 04.02. 4:30 1032 + 3,8
Sa, 04.02. 4:00 1031 + 3,5
Ortszeit Schneehöhe (cm)
Sa, 04.02. 7:00 0
Sa, 04.02. 1:00 0
Fr, 03.02. 19:00 0
Fr, 03.02. 13:00 0
Fr, 03.02. 7:00 0
Fr, 03.02. 1:00 0
Do, 02.02. 19:00 0
Do, 02.02. 13:00 0
Ortszeit Schneehöhe (cm)
Sa, 04.02. 7:00 0
Sa, 04.02. 6:50 0
Sa, 04.02. 6:40 0
Sa, 04.02. 6:30 0
Sa, 04.02. 6:20 0
Sa, 04.02. 6:10 0
Sa, 04.02. 6:00 0
Sa, 04.02. 5:30 0
Sa, 04.02. 5:00 0
Sa, 04.02. 4:30 0
Sa, 04.02. 4:00 0
Link zu dieser Seite / Seite empfehlen

Das Wetter in ...